Reflectivity
-20 -11 -2 -20 -20 -20 -20 6 -20 -20 -20 -13 -20 -20 -20 -20 -20 -20 -20 -20 -20 -20 -20 -20 -15 -20 15 1 -20 -20 -20 -20 -20 -20 -20 -20 -20 -20 -20 -20 -20 -20 -20 -20
-4 -20 -20 -20 -20 -6 -7 7 -5 -18 -20 -4 -14 -20 -20 -20 -20 -20 -20 -20 -20 -20 -0 7 3 10 16 -8 -20 -20 -20 -20 -20 -20 -20 -20 -20 -20 -20 -20 -20 -20 -20 -20
-20 -20 -20 -20 -17 -4 -3 -20 -20 -20 -20 -20 -20 -20 -20 -20 -20 -20 -20 -20 -20 8 25 -20 -20 10 0 -6 -14 -20 -6 -18 -20 -20 -20 -20 -20 -20 -20 -20 -20 -20 -20 -20
-14 -20 -20 -20 -7 26 6 -18 2 -3 8 1 -20 -19 -20 -20 -20 -20 -20 -20 -20 -17 -7 21 -6 -18 -12 -13 -20 -18 20 -3 -4 -20 -20 -20 -20 -20 -20 -20 -20 -20 -20 -20
-20 -20 -19 0 -3 -3 -11 -19 -7 3 26 10 2 8 -20 -20 -20 -20 -20 -20 -20 9 -20 -20 2 -20 -19 -2 13 -18 27 20 13 -20 -20 -20 -20 -20 -20 -20 -20 -20 -20 -20
-20 -20 -19 -20 -20 -15 -20 7 5 11 20 19 -20 -17 -20 -20 -20 -20 -20 -20 -20 14 -16 -20 23 -6 -20 14 -1 -20 -7 12 15 -20 -20 -20 -20 -20 -20 -20 -20 -20 -20 -20
-20 -20 -20 -20 -14 -20 -2 3 -18 -0 -2 10 8 11 6 -20 -20 -20 -20 -20 -20 -11 -1 -20 -20 -20 -20 11 -9 -18 -19 5 17 -19 -20 -20 -20 -20 -20 -20 -20 -20 -20 -20
-20 -20 -20 -20 -20 -20 -20 -20 -6 17 -8 -20 -8 -11 -19 -18 -20 -20 -20 -20 -8 -20 -4 -20 -20 -20 -20 17 1 13 -1 3 12 -20 -20 -20 -20 -20 -20 -20 -20 -20 -20 -20
-20 -20 -20 -20 -20 -20 -20 -20 -20 3 -20 -5 -20 1 -18 -20 -20 -20 -20 -20 -14 -19 -20 -20 -20 -20 -7 20 12 30 5 -14 -9 -20 -20 -20 -20 -20 -20 -20 -20 -20 -20 -20
-20 -13 -6 -20 -20 -20 -20 -20 7 -20 -4 10 -3 -10 -20 -20 -19 -20 -20 -20 -20 -20 -20 -20 -20 -20 20 10 -4 25 -18 -17 -9 -19 -20 -20 -20 -20 -20 -19 -20 -20 -20 -20
-20 -11 -8 -19 -20 -20 -16 -20 -20 -8 8 24 13 22 -20 5 -12 -9 -20 10 -20 -17 -20 -10 -20 -20 -5 -2 33 -12 -20 -12 3 -20 -20 -20 -20 -15 -20 -20 -20 -20 -20 -20
-20 -2 -20 -20 -20 -20 -20 -20 -14 7 -18 -19 16 18 -20 20 26 -2 -17 -20 -20 -18 17 -20 -20 12 26 11 -20 -20 -20 -9 -20 -20 -20 -20 -20 -20 -20 -20 -20 -20 -20 -20
-20 -20 -6 -20 -20 -20 -20 -20 9 -20 -20 -14 18 -2 -0 20 -17 -14 25 5 14 21 23 -0 -20 11 -20 -10 -20 -20 -20 -20 -20 -20 -20 -20 -20 -20 -20 -20 -20 -20 -20 -20
-20 -20 -20 -4 -20 -20 -20 -20 -11 -5 -20 -20 -4 2 -3 23 -14 -2 19 -17 -20 -18 -8 -20 -20 -20 -20 -20 -20 -20 -20 -20 -20 -20 -20 -20 -20 -20 -20 -20 -20 -20 -20 -20
-20 -20 -20 -20 -20 -20 -20 -20 -20 -20 -13 -5 -20 -6 -6 12 2 -3 15 -20 -20 18 -20 -20 -20 -20 -20 -20 -20 -20 -20 -20 -20 -20 -20 -20 -20 -20 -20 -20 -20 -20 -20 -20
-20 -20 -20 -20 -20 -20 -20 -20 -20 -20 -20 -11 -20 -19 -20 -11 5 -8 20 8 21 18 -20 -20 -20 -20 -20 -20 -20 -20 -20 -20 -20 -20 -20 -20 -20 -20 -20 -20 -20 -20 -20 -20
-20 -20 -20 -20 -20 -20 -20 -20 -20 -20 -20 -20 -20 -20 -20 -8 -10 2 11 12 19 -17 -20 -20 -20 -20 -20 -20 -20 -20 -20 -20 -20 -20 -20 -20 -20 -20 -20 -20 -20 -20 -20 -20
-20 -20 -20 -20 -20 -20 -20 -20 -20 -20 -20 -20 -20 -20 -20 -13 -17 -20 -4 21 9 -19 -20 -20 -20 -20 -20 -20 -20 -20 -20 -20 -20 -20 -20 -20 -20 -20 -20 -20 -20 -20 -20 -20
-20 -20 -20 -20 -20 -20 -20 -20 -20 -20 -20 -20 -20 -20 -20 -20 -18 -15 15 27 17 -20 -20 -20 -20 -20 -20 -20 -20 -20 -20 -20 -20 -20 -20 -20 -20 -20 -20 -20 -20 -20 -20 -20
-20 -20 -20 -20 -20 -20 -20 -20 -20 -20 -20 -20 -20 -20 -20 -20 -20 -17 -2 -7 -19 -20 -20 -20 -20 -20 -20 -20 -20 -20 -20 -20 -20 -20 -20 -20 -20 -20 -20 -20 -20 -20 -20 -20
-20 -20 -20 -20 -20 -20 -20 -20 -20 -20 -20 -20 -20 -20 -20 -20 -20 -20 -20 -20 -20 -20 -20 -20 -20 -20 -20 -20 -20 -20 -20 -20 -20 -20 -20 -20 -20 -20 -20 -20 -20 -20 -20 -20
-20 -20 -20 -20 -20 -20 -20 -20 -20 -20 -20 -20 -20 -20 -20 -20 -20 -20 -20 -20 -20 -20 -20 -20 -20 -20 -20 -20 -20 -20 -20 -20 -20 -20 -20 -20 -20 -20 -20 -20 -20 -20 -20 -20
-19 -20 -20 -20 -20 -20 -20 -20 -20 -20 -20 -20 -20 -20 -20 -20 -20 -20 -20 -20 -20 -20 -20 -20 -20 -20 -20 -20 -20 -20 -20 -20 -20 -20 -20 -20 -20 -20 -20 -20 -20 -20 -20 -20
-20 -20 -20 -20 -20 -20 -20 -20 -20 -20 -20 -20 -20 -20 -20 -20 -20 -20 -20 -20 -20 -20 -20 -20 -20 -20 -20 -20 -20 -20 -20 -20 -20 -20 -20 -20 -20 -20 -20 -20 -20 -20 -20 -20
-20 -20 -20 -20 -20 -20 -20 -20 -20 -20 -20 -16 -17 -20 -20 -20 -20 -20 -20 -20 -20 -20 -20 -20 -20 -20 -20 -20 -20 -20 -20 -20 -20 -20 -20 -20 -20 -20 -20 -20 -20 -20 -20 -20
-20 -20 -20 -20 -20 -20 -20 -20 -20 -20 -20 -20 -20 -20 -20 -20 -20 -20 -20 -20 -20 -20 -20 -20 -20 -20 -20 -20 -20 -20 -20 -20 -20 -20 -20 -20 -20 -20 -20 -20 -20 -20 -20 -20
Wind_Speed
2 3 9 10 12 14 13 13 16 6 6 6 9 17 24 7 8 11 15 9 9 13 14 13 14 13 11 9 9 9 10 7 7 4 4 3 3 2 2 1 4 4 5 4
2 10 11 9 10 13 16 19 20 19 14 12 12 25 21 10 8 10 14 10 10 12 8 13 13 13 14 14 11 9 10 9 6 5 3 3 3 2 2 2 2 3 5 4
6 9 4 7 11 15 17 20 16 17 6 12 11 24 19 17 15 18 19 16 10 16 16 14 15 15 13 14 13 11 9 10 7 6 4 4 4 3 2 1 1 2 4 4
8 1 6 11 14 9 17 12 20 20 12 8 11 13 12 6 15 17 21 16 13 12 14 15 15 15 15 13 12 10 9 9 7 7 5 6 4 4 3 3 2 2 3 3
8 5 8 13 5 6 9 10 15 19 15 13 13 8 2 7 12 17 21 17 16 15 17 17 17 16 13 13 12 10 10 8 7 7 6 5 4 3 2 2 5 2 2 3
17 1 4 4 8 13 13 13 16 11 6 9 14 14 16 9 15 15 15 17 18 14 16 16 13 14 13 12 11 10 11 8 7 7 6 7 7 6 4 3 3 2 1 1
7 4 3 4 7 6 7 6 5 3 3 6 8 10 18 8 9 9 17 14 18 17 17 17 17 16 13 14 12 11 11 8 7 7 6 6 7 7 7 5 4 4 2 1
4 11 5 5 7 4 5 4 3 6 4 5 1 9 9 12 18 15 15 17 12 16 16 17 18 16 15 14 13 13 11 8 8 7 6 6 6 4 4 4 3 3 2 2
3 7 5 7 7 4 1 3 3 5 4 4 4 7 10 5 2 7 11 15 16 14 16 17 15 13 14 14 14 13 11 9 8 7 6 6 5 6 5 4 3 3 2 2
5 9 5 6 1 5 5 2 4 3 6 5 5 6 6 8 7 3 9 12 11 11 13 14 13 13 12 12 10 11 10 11 9 7 6 5 6 5 5 4 4 4 3 2
4 3 7 4 3 3 2 4 2 2 3 4 5 4 4 10 3 7 8 13 16 15 15 13 11 11 12 10 11 9 9 9 8 7 6 6 5 5 5 4 4 4 3 4
2 3 5 10 9 3 4 1 3 3 5 3 3 6 4 7 6 5 7 9 8 9 12 11 12 13 12 10 10 9 7 8 7 6 6 6 6 6 6 5 5 4 6 5
2 2 5 10 6 4 3 4 2 3 0 4 4 8 4 6 8 5 7 7 9 11 11 10 11 10 10 9 9 8 7 7 7 7 7 6 6 6 6 6 6 6 6 6
3 3 5 5 10 4 9 10 6 3 3 6 8 13 15 7 2 3 6 6 10 11 10 8 10 9 8 8 8 7 7 7 7 7 7 7 6 6 6 6 6 6 5 6
4 5 4 9 14 7 14 16 12 7 9 5 10 11 19 7 2 4 6 8 12 12 11 9 11 10 8 8 7 7 7 7 7 8 7 7 7 7 7 7 6 6 6 5
1 4 3 8 6 2 10 13 9 7 8 10 9 11 2 5 6 6 6 10 12 11 11 10 10 11 10 9 8 8 7 7 8 8 8 7 7 7 6 6 6 6 6 5
2 1 4 6 5 9 6 5 5 4 5 4 4 5 5 3 3 5 6 7 12 11 11 11 11 11 9 9 9 8 8 7 8 9 7 7 7 7 6 6 6 6 4 3
2 1 1 6 7 4 6 6 5 7 8 5 6 4 4 1 2 4 2 7 8 9 9 9 9 9 8 7 8 8 7 8 8 7 7 7 7 7 6 6 6 3 2 3
5 2 2 1 2 8 4 5 4 4 6 4 6 7 3 3 3 3 3 3 7 7 8 9 9 8 8 9 8 10 8 8 8 7 7 6 7 7 6 6 4 2 3 3
4 2 2 1 3 4 4 4 2 1 5 5 6 6 2 1 3 2 4 6 7 7 8 11 10 8 10 7 8 10 8 8 7 7 7 6 6 7 6 4 4 2 2 2
1 0 4 3 4 9 8 6 3 1 5 4 5 4 5 1 1 2 2 5 5 8 12 10 11 11 9 8 9 9 7 7 6 7 7 6 6 6 5 4 2 2 3 3
6 6 4 2 3 7 4 3 2 5 3 2 4 4 2 2 3 4 5 6 11 13 11 11 11 9 7 7 10 8 8 6 7 7 7 6 5 4 4 5 2 3 3 3
3 6 4 9 8 4 3 4 3 3 2 3 2 2 3 2 3 4 4 7 7 11 10 8 12 10 6 7 8 9 6 7 7 7 7 5 5 4 3 4 3 2 3 3
4 4 4 2 4 7 7 5 5 4 2 1 2 3 2 4 4 6 6 7 8 8 10 9 11 9 7 6 7 8 7 7 7 7 6 4 5 4 4 2 1 1 2 3
4 5 4 6 9 7 5 6 3 3 3 3 3 3 5 7 5 6 6 7 7 8 7 8 9 8 7 7 8 7 7 7 7 6 5 4 4 3 1 2 2 1 3 3
6 7 6 6 4 3 5 6 3 7 5 5 5 4 3 5 7 6 7 5 7 9 6 8 7 9 7 7 7 6 6 7 7 6 4 3 2 1 0 2 4 5 9 10
Wind_Direction
205 253 250 242 223 247 273 266 266 255 262 320 265 267 269 272 229 238 256 237 219 223 207 172 169 162 156 137 152 158 145 149 141 129 120 103 131 116 97 119 131 123 107 109
226 252 258 240 245 245 249 258 266 273 260 253 267 270 276 261 239 227 245 247 209 209 179 171 164 164 170 158 161 159 158 155 152 139 129 133 141 138 132 132 114 134 115 108
216 257 297 250 246 238 237 243 258 254 267 257 273 277 280 259 246 232 245 245 209 183 190 179 168 174 171 168 166 166 161 160 153 142 110 86 85 71 80 94 117 193 115 119
267 230 256 274 264 237 265 242 254 259 259 262 170 282 249 257 235 214 223 223 208 181 189 181 177 175 175 171 162 162 156 160 154 149 139 155 143 147 181 172 163 160 135 137
266 254 268 280 251 222 254 276 256 251 246 253 223 267 266 218 240 219 215 209 202 185 178 179 181 173 172 162 167 159 152 156 146 158 160 151 141 131 126 122 144 132 162 152
255 252 238 251 263 253 270 278 260 255 234 250 252 213 271 219 231 203 223 196 185 173 179 178 175 161 162 160 159 153 157 162 148 156 166 162 155 146 132 139 143 174 163 157
300 221 211 209 279 238 246 286 307 331 179 235 327 194 253 266 243 197 200 193 175 168 163 163 160 165 158 167 166 159 158 156 151 160 163 163 157 154 158 170 166 164 141 189
322 322 202 173 221 261 226 189 291 298 302 270 254 219 253 246 246 252 179 157 163 167 170 170 169 167 164 168 165 161 161 148 152 156 166 160 151 150 157 165 166 156 165 171
292 263 268 197 214 186 233 232 220 274 242 264 232 278 295 313 280 137 147 150 165 178 170 171 166 165 159 165 166 158 158 150 150 158 154 157 152 151 159 162 135 146 148 156
265 285 242 287 238 239 232 289 311 279 302 288 295 277 264 335 349 127 146 161 166 158 158 163 162 155 162 159 147 149 153 153 155 149 160 163 158 153 146 139 142 138 132 110
219 228 291 349 214 270 311 286 237 256 248 307 309 307 208 300 262 245 196 175 166 166 169 158 147 141 152 138 149 144 143 138 147 153 161 152 146 145 132 136 134 123 103 93
213 260 278 267 287 240 220 270 285 280 311 258 273 277 17 309 294 236 188 135 156 151 152 137 135 140 141 142 139 147 138 142 153 153 149 145 136 132 126 117 107 109 96 76
186 254 301 334 355 7 322 274 238 305 349 263 313 278 74 25 357 12 118 115 121 130 126 123 125 139 134 132 135 138 136 143 143 136 129 127 126 126 119 111 105 93 96 82
170 218 211 270 266 275 296 285 284 205 272 291 269 281 313 326 20 84 103 120 118 123 130 124 118 120 120 121 127 130 128 130 129 123 123 125 126 121 119 111 98 94 87 86
181 243 230 249 259 258 266 269 276 217 239 244 281 313 314 345 147 165 136 126 118 123 125 127 126 119 112 115 117 114 115 121 122 118 116 118 116 111 106 101 97 88 80 77
328 271 339 291 288 257 283 275 252 238 264 259 279 288 328 339 79 107 139 131 128 140 129 121 118 121 126 130 128 122 122 120 120 115 116 118 110 108 107 102 98 87 75 63
285 311 5 269 323 313 303 266 242 265 227 220 289 296 335 31 100 137 136 148 142 141 136 136 137 135 133 133 133 129 123 118 111 115 116 114 114 108 106 103 89 78 71 62
237 13 147 279 342 347 248 306 249 254 276 274 295 317 342 353 75 117 78 133 141 138 134 130 129 120 119 116 109 113 115 115 114 111 114 114 114 112 102 91 84 81 70 53
192 124 280 329 262 282 309 347 344 6 312 359 313 316 50 81 78 25 118 111 154 144 138 137 130 119 118 120 122 116 108 110 112 119 121 125 120 112 106 96 94 80 58 37
106 86 137 338 314 280 256 313 299 256 309 353 319 337 36 61 75 264 157 132 119 117 128 126 117 110 116 123 120 117 119 119 123 132 126 118 115 114 112 111 99 83 74 29
148 170 201 225 264 283 258 280 289 34 276 340 313 336 340 250 205 316 98 98 102 124 122 116 121 130 132 127 121 118 124 129 130 115 110 106 110 118 121 112 91 83 52 27
180 155 207 149 217 288 211 322 57 228 288 298 328 330 322 28 41 34 80 114 121 117 118 121 118 119 120 120 119 124 122 125 113 112 112 114 114 108 106 102 86 63 39 10
250 193 187 186 219 236 265 242 293 177 242 327 6 30 97 90 40 59 93 102 114 123 116 111 120 115 109 123 130 120 133 123 118 114 120 117 106 101 95 89 67 47 17 6
241 156 214 1 281 249 258 248 241 201 213 112 77 114 91 107 93 92 89 96 106 109 113 115 116 118 114 107 100 118 132 129 122 122 120 117 118 95 59 59 96 51 355 338
214 144 198 262 285 286 268 241 215 170 124 105 103 116 133 121 101 115 108 100 105 105 102 112 120 118 119 116 113 126 131 129 121 121 124 101 86 81 37 1 275 306 261 223
191 192 174 223 244 197 268 308 195 160 179 170 140 112 100 123 121 115 102 105 115 114 108 105 105 117 124 120 121 127 134 131 128 115 112 124 118 104 346 350 332 313 278 292